Wind_Speed
41 42 43 43 43 43 44 43 44 44 45 45 45 46 46 47 47 47 47 48 48 49 49 49 48 48 48 48 48 49 49 49 49 48 48 48 48 48 48 48 48 48 47
40 41 42 42 42 42 43 43 43 44 45 45 46 46 46 46 47 47 47 48 48 49 49 49 49 49 49 49 49 50 50 50 50 49 48 48 48 48 49 48 48 49 48
38 40 41 42 43 43 43 43 44 44 44 45 46 46 45 45 46 47 48 48 47 48 48 49 49 49 50 50 50 50 50 50 50 50 50 50 50 49 50 50 49 49 49
38 39 41 42 42 43 44 44 45 45 45 45 46 46 45 45 46 46 47 47 48 48 49 49 50 50 50 51 50 50 51 51 51 51 51 50 51 51 51 50 50 50 49
39 39 41 42 43 43 43 44 45 45 45 46 46 46 47 47 47 48 48 48 48 49 49 50 50 50 51 51 51 51 51 51 52 52 52 52 51 50 51 51 51 51 50
37 39 40 41 41 42 43 44 45 45 45 46 46 46 47 48 49 49 49 49 49 50 50 50 51 51 50 50 50 50 50 50 51 51 52 52 52 51 51 51 51 50 49
36 36 37 38 39 40 42 43 44 45 45 45 46 47 47 48 49 49 50 50 50 51 50 50 50 50 50 50 50 50 50 49 49 49 49 49 49 50 51 51 51 51 50
34 35 36 37 37 38 39 41 42 43 45 45 45 45 46 47 47 48 48 49 50 50 50 50 50 50 49 49 49 49 49 49 48 48 48 49 49 50 50 50 50 51 52
34 35 36 37 37 38 39 40 41 41 42 42 43 44 44 45 46 47 48 49 49 49 49 49 49 49 49 48 48 48 48 48 48 48 48 49 49 50 50 50 50 50 51
34 35 35 36 36 37 38 39 40 40 40 41 41 42 42 43 44 45 46 47 48 48 48 48 48 48 47 47 47 46 46 46 47 47 47 48 48 49 49 49 49 49 50
33 34 34 34 35 36 37 38 39 39 39 39 40 41 41 41 42 43 44 45 45 46 45 45 45 45 46 46 45 44 44 45 45 45 46 47 48 47 47 46 47 47 48
33 33 33 33 34 35 36 38 38 38 38 39 39 40 40 40 41 41 41 42 42 42 42 43 43 43 44 44 44 44 45 45 45 45 46 46 46 45 45 45 45 45 45
31 32 32 32 33 34 35 36 37 37 37 38 39 39 39 39 39 39 39 39 39 40 40 40 41 41 41 42 44 44 45 45 45 45 45 46 45 44 44 44 44 44 44
31 31 32 32 32 33 34 35 35 36 37 37 37 37 37 37 37 38 37 37 38 38 38 39 39 39 40 42 43 44 45 45 45 45 45 44 44 43 43 43 42 42 42
31 31 32 32 33 33 33 34 34 35 35 35 35 35 35 36 36 36 36 36 36 37 37 38 38 38 39 40 40 41 42 43 44 43 42 42 43 42 42 42 42 41 42
30 31 31 31 32 33 33 33 33 33 33 33 34 34 34 35 35 35 35 35 36 36 37 37 37 37 38 38 39 39 40 40 41 41 41 42 42 42 42 41 41 41 41
29 29 30 30 30 31 31 31 31 31 30 31 31 32 33 33 34 35 35 35 35 35 36 36 36 36 36 37 38 37 37 38 38 38 38 39 40 40 39 39 40 40 40
27 28 29 29 29 29 30 30 29 29 28 28 28 29 29 30 31 32 33 34 34 34 35 35 35 35 35 36 36 36 35 36 36 36 36 36 36 36 36 36 37 37 38
26 27 27 28 28 28 28 27 27 27 27 27 27 27 27 27 28 29 30 31 31 32 33 34 34 34 34 34 33 33 33 34 34 33 33 34 34 35 35 34 35 35 35
24 25 25 26 26 26 26 26 25 26 25 25 25 26 27 27 27 28 28 29 30 30 31 32 32 32 32 31 31 31 32 31 31 32 32 32 32 33 33 32 32 33 33
24 24 25 25 25 25 25 25 25 24 25 25 25 26 27 27 27 27 28 28 29 29 29 29 29 29 29 29 29 29 29 30 30 30 30 30 30 30 30 30 30 30 30
25 25 25 25 25 25 25 25 24 24 24 25 25 25 25 25 26 27 27 27 27 27 27 27 27 27 27 27 27 28 28 28 28 29 29 29 28 28 28 27 27 27 27
25 25 26 26 26 26 25 25 24 24 24 24 24 24 25 25 25 25 25 25 25 25 25 25 25 24 25 25 25 26 26 26 27 27 27 27 27 26 25 25 25 25 25
25 25 25 25 25 25 25 25 25 25 24 24 24 24 24 24 24 24 24 24 24 24 24 24 23 23 23 23 24 24 24 24 24 23 23 23 23 23 23 23 23 23 22
25 25 25 25 25 26 25 25 25 25 24 24 24 23 23 23 23 23 24 23 23 23 22 22 22 22 22 23 23 22 22 22 22 22 21 21 21 21 21 21 21 21 20
25 26 25 25 25 25 25 24 24 24 23 23 22 22 23 23 22 22 22 22 22 21 20 20 20 20 21 21 21 21 21 20 20 20 20 19 19 19 19 19 19 18 17
Wind_Direction
254 255 255 256 257 257 257 258 258 259 260 260 261 261 262 263 264 265 265 266 267 267 266 267 267 267 268 269 270 270 270 270 270 271 271 272 273 274 275 275 276 276 277
256 255 255 256 257 257 257 258 260 261 261 262 262 262 263 263 264 265 266 266 266 266 267 267 268 269 269 269 269 269 269 269 270 270 271 272 273 273 274 275 276 276 276
260 258 258 258 257 258 259 259 260 262 262 263 263 263 264 264 264 265 265 266 265 266 267 268 269 270 270 271 270 270 270 270 270 270 271 272 272 273 274 275 275 275 275
261 261 260 260 260 260 260 260 261 261 262 263 263 264 264 264 265 265 265 265 266 267 268 269 270 271 272 272 272 271 270 270 270 271 272 273 273 273 274 275 275 275 274
262 262 263 261 261 261 260 260 261 262 263 263 264 265 264 264 266 267 267 267 268 269 269 270 271 271 272 273 272 272 272 271 271 271 272 273 273 274 275 275 275 274 274
265 265 264 263 263 262 262 262 262 262 264 264 265 266 266 266 267 267 268 269 269 270 271 271 272 272 272 273 273 273 273 273 274 273 273 274 274 275 275 275 274 273 274
267 266 266 265 264 264 264 264 264 264 265 266 267 267 267 268 268 269 269 270 270 270 271 271 271 272 273 273 273 273 273 273 274 274 274 275 276 276 275 275 273 273 273
268 267 267 266 266 267 267 267 267 267 267 267 267 268 268 269 269 270 270 271 271 271 270 270 270 271 272 273 273 273 273 273 274 274 275 275 276 276 276 275 274 273 273
270 269 268 267 267 267 267 268 268 268 269 269 269 270 270 269 270 270 270 270 270 270 270 269 269 271 272 272 273 273 273 273 273 274 275 275 276 275 275 276 275 273 273
270 269 269 269 268 268 268 268 269 269 270 270 270 272 271 271 270 270 271 270 269 269 270 269 270 270 270 271 272 272 271 272 273 274 274 276 275 274 274 275 275 273 274
271 271 271 270 269 269 269 269 270 270 271 271 272 272 273 273 273 272 272 271 270 269 269 270 269 269 270 270 271 272 272 272 273 274 274 276 276 274 274 274 274 275 275
271 272 273 272 271 271 272 272 272 271 271 272 273 273 273 274 274 274 272 271 271 270 270 270 270 269 269 270 270 271 272 273 273 274 275 276 276 276 274 273 273 274 274
271 272 273 274 275 275 275 274 274 274 273 273 273 273 274 274 273 273 272 272 272 272 272 271 270 270 270 270 271 273 273 274 275 275 276 277 276 275 273 272 273 274 273
272 273 274 275 277 277 277 277 277 277 276 274 273 273 273 273 273 272 272 272 272 273 273 272 272 271 271 271 272 274 275 275 275 275 276 276 275 274 273 273 273 273 273
274 274 275 277 278 278 279 279 279 277 277 276 274 274 273 273 273 272 272 273 273 273 273 273 273 273 273 274 275 275 276 276 275 275 276 276 275 272 272 272 272 272 273
276 277 277 278 279 279 279 280 279 278 277 276 274 274 274 273 272 272 272 273 274 274 274 273 273 274 275 275 275 276 276 276 276 275 277 276 275 274 273 272 271 272 274
277 278 278 279 280 280 280 280 280 279 278 277 276 276 275 274 273 273 273 273 274 274 274 274 274 275 276 275 276 276 277 277 277 277 278 277 276 275 275 273 272 272 273
278 279 281 282 282 282 283 282 280 279 279 279 278 278 278 277 275 275 273 273 274 275 276 276 276 276 276 276 276 276 277 277 278 278 278 278 277 276 275 275 275 274 274
280 281 282 283 283 283 283 282 281 280 280 280 279 279 279 279 279 278 276 274 275 277 278 278 278 278 277 276 276 276 277 277 277 278 278 278 278 277 276 276 275 275 275
281 283 284 285 285 285 283 282 281 281 281 281 279 278 278 279 280 280 278 276 278 279 279 279 278 277 276 275 275 276 277 277 278 279 279 279 277 276 276 276 276 276 276
284 285 286 287 286 285 284 283 283 283 282 281 280 279 278 277 278 279 279 280 281 280 279 279 278 277 275 275 276 277 278 278 279 279 280 279 278 276 275 276 277 277 277
286 286 286 286 286 286 285 284 284 283 282 282 282 280 280 280 279 279 280 280 281 281 281 280 279 277 275 275 275 276 278 278 278 279 279 279 278 277 277 278 279 278 278
287 287 286 286 287 286 284 283 282 282 282 283 283 282 282 281 281 281 282 283 283 282 282 281 280 279 278 277 277 277 277 278 279 279 279 279 278 277 276 278 278 278 277
288 288 287 287 287 287 285 282 280 281 281 282 282 282 282 282 282 283 284 285 285 282 280 279 280 279 278 279 280 279 278 278 279 279 279 279 278 276 276 277 278 278 276
288 287 287 287 287 287 285 282 281 280 280 279 280 280 282 283 285 286 286 286 286 284 282 281 280 280 281 281 280 279 278 277 278 279 279 279 278 276 276 277 277 276 274
288 288 288 288 288 287 285 283 280 279 278 279 280 280 281 283 285 287 288 288 287 285 282 280 281 282 284 283 281 280 278 277 277 278 278 278 277 275 275 275 276 275 272
Height
5653 5655 5656 5658 5659 5660 5661 5661 5662 5662 5663 5664 5664 5665 5665 5665 5665 5665 5665 5665 5665 5665 5665 5665 5665 5664 5664 5664 5663 5663 5662 5661 5662 5662 5661 5660 5658 5658 5656 5655 5653 5652 5651
5643 5644 5645 5646 5647 5648 5649 5650 5650 5651 5651 5652 5652 5653 5653 5653 5653 5653 5653 5653 5653 5653 5653 5652 5652 5651 5651 5650 5650 5649 5649 5648 5648 5649 5648 5647 5646 5645 5643 5642 5640 5639 5637
5632 5633 5634 5635 5636 5637 5638 5638 5639 5639 5639 5640 5640 5640 5641 5641 5641 5641 5641 5640 5640 5640 5640 5640 5639 5639 5638 5637 5636 5636 5635 5635 5634 5634 5635 5633 5632 5631 5630 5628 5627 5625 5624
5622 5623 5623 5624 5625 5626 5626 5627 5627 5627 5627 5628 5628 5628 5628 5628 5628 5628 5628 5628 5627 5627 5627 5626 5626 5625 5625 5624 5623 5622 5621 5621 5621 5620 5620 5620 5618 5617 5616 5614 5613 5611 5610
5611 5612 5612 5613 5614 5614 5614 5615 5615 5615 5615 5615 5615 5615 5615 5615 5615 5615 5615 5614 5614 5614 5614 5613 5612 5612 5611 5610 5609 5608 5607 5607 5606 5606 5606 5605 5604 5603 5602 5600 5598 5597 5595
5601 5601 5601 5601 5602 5602 5602 5602 5603 5603 5603 5602 5602 5602 5602 5602 5602 5601 5601 5601 5601 5600 5600 5599 5598 5598 5597 5596 5595 5594 5594 5593 5593 5592 5592 5591 5590 5589 5587 5585 5584 5583 5583
5591 5591 5590 5590 5590 5590 5590 5590 5590 5590 5590 5589 5589 5589 5589 5589 5588 5587 5587 5586 5586 5586 5585 5585 5584 5584 5583 5582 5581 5581 5580 5579 5579 5579 5578 5577 5576 5575 5573 5572 5569 5568 5569
5581 5580 5580 5579 5579 5579 5578 5578 5577 5577 5577 5577 5576 5576 5575 5575 5574 5573 5572 5572 5571 5571 5571 5571 5570 5570 5569 5568 5568 5567 5566 5566 5565 5565 5565 5564 5562 5560 5558 5557 5555 5554 5554
5571 5570 5569 5568 5568 5567 5567 5566 5565 5564 5564 5563 5563 5562 5562 5561 5560 5559 5558 5558 5557 5557 5557 5556 5556 5556 5555 5554 5554 5553 5553 5552 5551 5550 5550 5549 5548 5546 5544 5543 5541 5540 5540
5560 5559 5558 5557 5556 5555 5555 5554 5553 5552 5551 5551 5550 5549 5549 5548 5547 5545 5544 5544 5544 5543 5543 5542 5542 5542 5541 5540 5539 5539 5539 5538 5537 5536 5536 5535 5533 5532 5530 5529 5527 5526 5525
5549 5548 5547 5546 5545 5544 5543 5542 5541 5540 5539 5539 5538 5537 5536 5535 5534 5533 5531 5530 5529 5529 5529 5529 5529 5528 5527 5526 5525 5525 5525 5524 5523 5523 5522 5521 5519 5518 5517 5515 5513 5512 5511
5539 5538 5537 5535 5534 5533 5532 5530 5529 5528 5527 5526 5525 5524 5523 5522 5521 5520 5519 5517 5517 5517 5517 5516 5516 5515 5514 5513 5513 5512 5511 5511 5510 5509 5508 5507 5505 5504 5503 5501 5500 5499 5498
5529 5528 5527 5525 5524 5522 5521 5519 5517 5516 5515 5514 5513 5512 5511 5510 5509 5508 5507 5506 5505 5504 5504 5504 5503 5502 5501 5501 5500 5499 5498 5497 5496 5495 5495 5494 5492 5491 5489 5488 5487 5486 5485
5519 5518 5517 5516 5514 5512 5510 5508 5506 5505 5503 5502 5501 5500 5499 5498 5497 5496 5495 5494 5493 5493 5492 5491 5491 5489 5489 5488 5488 5486 5485 5484 5483 5482 5481 5480 5479 5477 5476 5475 5475 5474 5473
5510 5508 5507 5505 5504 5502 5500 5498 5496 5494 5492 5491 5490 5488 5488 5487 5485 5484 5483 5483 5482 5482 5481 5480 5479 5478 5477 5476 5476 5474 5473 5472 5471 5469 5468 5467 5466 5465 5464 5463 5462 5461 5461
5500 5499 5497 5495 5494 5492 5489 5487 5485 5484 5482 5480 5478 5477 5476 5475 5474 5473 5473 5472 5471 5470 5469 5469 5468 5466 5465 5465 5464 5463 5461 5460 5458 5457 5456 5455 5454 5453 5452 5451 5450 5450 5449
5490 5489 5488 5486 5484 5482 5480 5478 5476 5474 5471 5470 5468 5467 5466 5465 5463 5463 5462 5461 5460 5459 5458 5457 5456 5455 5454 5453 5452 5451 5449 5448 5447 5445 5444 5443 5442 5441 5440 5439 5438 5438 5437
5481 5479 5478 5476 5474 5472 5470 5468 5467 5465 5463 5461 5459 5458 5456 5455 5453 5452 5451 5450 5449 5448 5447 5446 5445 5444 5443 5442 5441 5440 5438 5437 5436 5435 5433 5432 5431 5430 5429 5428 5427 5426 5426
5472 5471 5469 5467 5465 5463 5462 5459 5458 5456 5454 5452 5451 5449 5447 5446 5444 5443 5441 5440 5439 5438 5437 5436 5434 5433 5432 5431 5431 5429 5428 5427 5426 5425 5423 5422 5421 5420 5419 5417 5416 5416 5415
5464 5462 5461 5459 5457 5455 5453 5451 5449 5448 5446 5444 5443 5441 5439 5437 5436 5434 5433 5431 5430 5428 5427 5425 5424 5423 5422 5421 5421 5420 5419 5418 5416 5415 5414 5413 5411 5410 5409 5408 5407 5406 5405
5456 5454 5452 5450 5448 5446 5444 5443 5441 5439 5438 5436 5434 5433 5431 5429 5428 5426 5424 5423 5421 5419 5417 5416 5414 5413 5413 5412 5411 5411 5409 5408 5407 5406 5405 5404 5402 5401 5400 5399 5398 5396 5395
5448 5446 5444 5442 5440 5438 5437 5435 5433 5431 5430 5428 5426 5425 5423 5421 5419 5417 5416 5414 5412 5410 5408 5407 5406 5405 5404 5403 5403 5402 5401 5400 5398 5397 5396 5395 5394 5392 5391 5390 5389 5388 5387
5439 5438 5436 5434 5432 5430 5428 5427 5425 5423 5422 5420 5418 5417 5415 5413 5411 5409 5408 5406 5404 5402 5400 5399 5398 5397 5396 5395 5394 5394 5392 5391 5390 5389 5388 5387 5385 5384 5384 5383 5382 5380 5379
5431 5429 5427 5426 5424 5422 5420 5418 5417 5416 5414 5412 5411 5409 5407 5406 5404 5402 5400 5398 5396 5394 5393 5391 5390 5389 5388 5387 5387 5386 5385 5384 5383 5381 5380 5379 5378 5377 5376 5376 5374 5373 5372
5423 5421 5419 5417 5416 5414 5412 5410 5409 5408 5406 5405 5403 5401 5400 5398 5396 5395 5393 5391 5389 5387 5385 5384 5383 5382 5381 5380 5379 5378 5377 5376 5375 5374 5373 5373 5372 5371 5370 5369 5368 5367 5366
5414 5412 5411 5409 5407 5405 5403 5402 5401 5399 5398 5397 5395 5394 5392 5391 5389 5387 5386 5384 5382 5380 5379 5377 5376 5375 5374 5373 5372 5371 5370 5369 5368 5368 5367 5366 5365 5364 5364 5363 5362 5361 5361